TANUSHA-3 (43597 NORAD) Tracking and Keplerian Element Data

This shows tracking and keplerian element data for the satellite.

Feedback or suggestion? Click here.




ElementValue
Catalog43597
NameTANUSHA-3
Epoch Orbit11776
Epoch Day248.19053934
Epoch Year2020
RAAN220.8087
Inclination51.6102
Eccentricity0.0003266
Argument of Perigee222.6275
Mean Anonmoly137.4495
Mean Motion16.33928828
Decay Rate0.05224124
L11 43597U 98067PJ 20248.19053934 .05224124 12197-4 75260-3 0 9995
L22 43597 51.6102 220.8087 0003266 222.6275 137.4495 16.33928828117760



Live tracking and technical data element details for TANUSHA-3 (NORAD 43597). TANUSHA-3 can be tracked NOW for your location showing map with azimuth and elevation plus other details from your city location.







IsCatalogInMostPopularTable: catalog: 43597, numindb: 616
Update: records affected: 1



GetName: 43597 TANUSHA-3

Hit Count: updated at: Sat, 06 Dec 2025 12:07:55 GMT